1505383200.72,31971,17.0,73558.5,13.89,-21.03,-21.83,0,*4B
1505383201.94,31972,17.0,73556.5,13.87,-21.09,-21.97,0,*49
1505383203.16,31973,17.0,73566.8,13.91,-20.73,-21.63,0,*48
1505383204.39,31974,17.0,73568.0,13.91,-20.39,-21.09,0,*4D
1505383205.6,31975,17.0,73570.5,13.93,-19.47,-20.25,0,*42
1505383206.82,31976,17.0,73570.3,13.93,-19.17,-20.05,0,*46
1505383208.03,31977,17.0,73564.3,13.93,-17.35,-18.07,0,*40
1505383209.24,31978,17.0,73562.8,13.97,-19.07,-19.99,0,*42
1505383210.47,31979,17.0,73566.0,13.97,-18.49,-19.27,0,*4D
1505383211.75,31980,17.0,73562.8,13.99,-17.55,-18.31,0,*41
1505383213.02,31981,17.0,73570.0,14.03,-17.59,-18.35,0,*4C
1505383214.26,31982,17.0,73578.0,14.05,-17.41,-18.07,0,*41
1505383215.47,31983,17.0,73574.0,14.09,-19.51,-20.59,0,*43
1505383216.69,31984,17.0,73572.0,14.11,-20.73,-21.73,0,*4E
1505383217.91,31985,17.0,73560.5,14.09,-20.73,-21.53,0,*44
1505383219.11,31986,17.0,73552.8,14.09,-20.09,-20.89,0,*4C
1505383220.31,31987,17.0,73554.5,14.09,-18.79,-19.51,0,*4E
1505383221.56,31988,17.0,73554.0,14.11,-18.59,-19.47,0,*4D
1505383222.83,31989,17.0,73550.0,14.11,-18.01,-18.89,0,*42
1505383224.02,31990,17.0,73554.3,14.13,-18.21,-18.83,0,*40
1505383225.27,31991,17.0,73558.0,14.15,-17.93,-18.69,0,*45
1505383226.5,31992,17.0,73556.0,14.15,-19.17,-20.09,0,*49
1505383227.76,31993,17.0,73558.0,14.17,-19.27,-20.15,0,*44
1505383228.99,31994,17.0,73552.5,14.19,-19.95,-20.63,0,*45
1505383230.23,31995,17.0,73546.0,14.17,-19.57,-20.29,0,*4A
1505383231.46,31996,17.0,73536.8,14.17,-20.63,-21.53,0,*48
1505383232.66,31997,17.0,73558.3,14.17,-22.03,-23.13,0,*4B
1505383233.94,31998,17.0,73570.5,14.15,-19.31,-20.19,0,*46
1505383235.2,31999,17.0,73580.0,14.15,-18.69,-19.57,0,*4B
1505383236.45,32000,17.0,73568.8,14.15,-20.35,-21.17,0,*4C
1505383237.68,32001,17.0,73556.0,14.15,-19.91,-20.73,0,*4A
1505383238.93,32002,17.0,73536.5,14.19,-19.81,-20.59,0,*4C
1505383240.15,32003,17.0,73538.0,14.15,-21.63,-22.67,0,*49
1505383241.4,32004,17.0,73544.3,14.15,-21.57,-22.53,0,*4E
1505383242.65,32005,17.0,73562.3,14.13,-21.33,-22.21,0,*4E
1505383243.9,32006,17.0,73544.8,14.11,-21.03,-22.37,0,*4B
1505383245.12,32007,17.0,73544.5,14.09,-22.31,-23.39,0,*4E
1505383246.36,32008,17.0,73552.3,14.09,-23.69,-24.83,0,*4B
1505383247.61,32009,17.0,73554.5,14.03,-25.61,-26.93,0,*4D
1505383248.87,32010,17.0,73556.3,13.99,-21.67,-22.63,0,*48
1505383250.11,32011,17.0,73530.8,13.99,-20.43,-21.39,0,*42
1505383251.31,32012,17.0,73526.3,13.97,-22.67,-23.75,0,*41
1505383252.54,32013,17.0,73522.3,13.97,-23.29,-24.31,0,*4C
1505383253.81,32014,17.0,73514.0,13.95,-23.03,-23.95,0,*48
1505383255.05,32015,17.0,73516.3,13.91,-20.59,-21.39,0,*45
1505383256.28,32016,17.0,73546.3,13.93,-18.69,-19.41,0,*48
1505383257.48,32017,17.0,73554.3,13.93,-18.21,-18.83,0,*4A
1505383258.76,32018,17.0,73554.0,13.99,-17.79,-18.55,0,*46
1505383259.99,32019,17.0,73562.8,14.01,-19.75,-20.53,0,*4E
1505383261.23,32020,17.0,73562.3,14.01,-19.65,-20.43,0,*44
1505383262.48,32021,17.0,73554.5,14.03,-19.41,-20.25,0,*41
1505383263.73,32022,17.0,73554.5,14.03,-19.95,-20.83,0,*47
1505383264.96,32023,17.0,73558.0,14.03,-19.75,-20.63,0,*46
1505383266.18,32024,17.0,73566.5,14.03,-18.11,-18.83,0,*47
1505383267.4,32025,17.0,73556.8,14.11,-18.45,-19.37,0,*4A
1505383268.63,32026,17.0,73546.5,14.09,-20.89,-21.87,0,*4B
1505383269.86,32027,17.0,73542.0,14.09,-20.89,-21.67,0,*44
1505383271.1,32028,17.0,73546.8,14.05,-19.27,-19.99,0,*43
1505383272.33,32029,17.0,73560.0,14.05,-19.81,-20.59,0,*48
1505383273.6,32030,17.0,73558.0,14.05,-19.27,-20.19,0,*48
1505383274.83,32031,17.0,73556.5,14.11,-19.75,-20.43,0,*44
1505383276.08,32032,17.0,73546.5,14.11,-20.89,-21.67,0,*49
1505383277.3,32033,17.0,73536.5,14.09,-20.53,-21.47,0,*44
1505383278.51,32034,17.0,73544.5,14.09,-18.69,-19.37,0,*4D
1505383279.74,32035,17.0,73568.0,14.11,-19.47,-20.25,0,*41
1505383280.99,32036,17.0,73556.8,14.11,-19.75,-20.53,0,*42
1505383282.25,32037,17.0,73572.8,14.13,-19.57,-20.49,0,*4A
1505383283.48,32038,17.0,73576.0,14.13,-18.07,-18.89,0,*46
1505383284.71,32039,17.0,73570.3,14.13,-18.69,-19.61,0,*48
1505383285.96,32040,17.0,73576.5,14.15,-17.45,-18.21,0,*44
1505383287.19,32041,17.0,73570.8,14.19,-17.83,-18.65,0,*43
1505383288.4,32042,17.0,73560.0,14.19,-17.69,-18.41,0,*42
1505383289.69,32043,17.0,73566.8,14.21,-17.25,-17.97,0,*44
1505383290.89,32044,17.0,73574.0,14.23,-16.79,-17.31,0,*45
1505383292.13,32045,17.0,73576.8,14.27,-16.83,-17.59,0,*4B
1505383293.39,32046,17.0,73564.5,14.31,-18.93,-19.81,0,*4B
1505383294.6,32047,17.0,73572.0,14.31,-19.37,-20.29,0,*4D
1505383295.86,32048,17.0,73574.3,14.33,-20.83,-21.77,0,*4F
1505383297.07,32049,17.0,73564.3,14.31,-22.27,-23.13,0,*40
1505383298.34,32050,17.0,73560.3,14.25,-20.19,-20.99,0,*43
1505383299.57,32051,17.0,73562.3,14.31,-18.89,-19.51,0,*4B
1505383300.83,32052,17.0,73562.3,14.25,-18.83,-19.61,0,*44
1505383302.06,32053,17.0,73560.8,14.31,-19.81,-20.63,0,*4B
1505383303.27,32054,17.0,73560.8,14.31,-19.17,-19.95,0,*40
1505383304.51,32055,17.0,73566.3,14.31,-19.85,-20.73,0,*48
1505383305.72,32056,17.0,73556.8,14.27,-20.39,-21.17,0,*42
1505383306.97,32057,17.0,73556.3,14.25,-21.09,-22.17,0,*40
1505383308.22,32058,17.0,73562.0,14.25,-21.43,-22.21,0,*44
1505383309.48,32059,17.0,73562.5,14.21,-22.41,-23.23,0,*43
1505383310.72,32060,17.0,73566.5,14.21,-22.93,-23.89,0,*46
1505383311.97,32061,17.0,73572.0,14.17,-23.49,-24.41,0,*47
1505383313.18,32062,17.0,73568.8,14.17,-21.73,-22.63,0,*49
1505383314.4,32063,17.0,73568.5,14.17,-20.05,-20.83,0,*44
1505383315.65,32064,17.0,73574.0,14.15,-19.81,-20.39,0,*46
1505383316.89,32065,17.0,73574.0,14.15,-19.17,-19.95,0,*44
1505383318.17,32066,17.0,73570.8,14.15,-18.89,-19.57,0,*4F
1505383319.38,32067,17.0,73568.3,14.17,-19.13,-19.91,0,*44
1505383320.57,32068,17.0,73572.5,14.17,-18.17,-19.03,0,*45
1505383321.81,32069,17.0,73566.3,14.23,-19.75,-20.49,0,*42
1505383323.07,32070,17.0,73562.5,14.21,-20.63,-21.53,0,*4F
1505383324.3,32071,17.0,73558.3,14.19,-20.43,-21.17,0,*47
1505383325.55,32072,17.0,73560.3,14.19,-19.03,-19.65,0,*44
1505383326.81,32073,17.0,73562.3,14.21,-17.73,-18.31,0,*47
1505383328.05,32074,17.0,73564.0,14.23,-16.65,-17.35,0,*4F
1505383329.3,32075,17.0,73564.3,14.27,-16.69,-17.17,0,*46
1505383330.55,32076,17.0,73566.3,14.33,-16.31,-16.93,0,*40
1505383331.78,32077,17.0,73562.8,14.35,-17.03,-17.69,0,*43
1505383333.04,32078,17.0,73560.8,14.37,-18.17,-18.93,0,*4E
1505383334.27,32079,17.0,73560.5,14.39,-17.11,-17.83,0,*46
1505383335.52,32080,17.0,73566.3,14.41,-16.83,-17.55,0,*4E
1505383336.78,32081,17.0,73566.0,14.45,-16.09,-16.59,0,*44
1505383338.05,32082,17.0,73566.0,14.49,-16.41,-17.07,0,*4D
1505383339.3,32083,17.0,73572.0,14.49,-16.83,-17.59,0,*49
1505383340.51,32084,17.0,73574.3,14.53,-15.99,-16.59,0,*4C
1505383341.77,32085,17.0,73570.0,14.57,-15.57,-16.17,0,*41
1505383343.0,32086,17.0,73564.5,14.61,-16.69,-17.31,0,*4C
1505383344.25,32087,17.0,73566.3,14.63,-16.45,-17.03,0,*40
1505383345.52,32088,17.0,73558.3,14.63,-17.79,-18.59,0,*41
1505383346.77,32089,17.0,73556.3,14.65,-19.61,-20.35,0,*40
1505383348.02,32090,17.0,73554.0,14.67,-18.65,-19.31,0,*41
1505383349.27,32091,17.0,73554.3,14.67,-16.89,-17.63,0,*45
1505383350.52,32092,17.0,73564.0,14.67,-17.45,-18.41,0,*48
1505383351.78,32093,17.0,73570.3,14.71,-17.55,-18.07,0,*4D
1505383353.03,32094,17.0,73564.0,14.71,-16.69,-17.31,0,*4E
1505383354.28,32095,17.0,73558.8,14.71,-18.31,-19.07,0,*47
1505383355.52,32096,17.0,73548.3,14.71,-20.05,-20.99,0,*45
1505383356.8,32097,17.0,73548.3,14.71,-21.27,-22.21,0,*44
1505383358.01,32098,17.0,73562.8,14.69,-18.99,-19.71,0,*40
1505383359.29,32099,17.0,73582.5,14.71,-17.45,-18.01,0,*40
1505383360.55,32100,17.0,73592.8,14.71,-17.45,-18.21,0,*43
1505383361.81,32101,17.0,73592.3,14.71,-18.65,-19.41,0,*48
1505383363.06,32102,17.0,73586.0,14.71,-22.37,-23.29,0,*42
1505383364.29,32103,17.0,73564.8,14.69,-24.15,-25.13,0,*43
1505383365.58,32104,17.0,73554.8,14.63,-21.53,-22.47,0,*4F
1505383366.82,32105,17.0,73554.3,14.61,-23.59,-24.71,0,*47
1505383368.04,32106,17.0,73556.0,14.59,-22.63,-23.59,0,*4A
1505383369.25,32107,17.0,73564.8,14.57,-20.93,-21.93,0,*4C
1505383370.5,32108,17.0,73574.0,14.57,-21.87,-22.73,0,*4A
1505383371.76,32109,17.0,73574.0,14.53,-23.03,-24.25,0,*44
1505383372.98,32110,17.0,73556.8,14.47,-22.73,-23.79,0,*41
1505383374.21,32111,17.0,73536.8,14.45,-20.69,-21.77,0,*47
1505383375.44,32112,17.0,73544.5,14.43,-20.49,-21.93,0,*4A
1505383376.66,32113,17.0,73558.5,14.45,-21.43,-22.53,0,*49
1505383377.94,32114,17.0,73562.8,14.45,-20.53,-21.57,0,*49
1505383379.14,32115,17.0,73584.8,14.43,-20.39,-21.13,0,*42
1505383380.39,32116,17.0,73580.5,14.45,-18.93,-19.47,0,*46
1505383381.65,32117,17.0,73582.5,14.47,-18.35,-19.27,0,*4F
1505383382.85,32118,17.0,73584.0,14.47,-18.79,-19.71,0,*4B
1505383384.07,32119,17.0,73586.0,14.47,-21.57,-22.57,0,*40
1505383385.3,32120,17.0,73580.5,14.43,-21.33,-22.11,0,*4E
1505383386.51,32121,17.0,73582.0,14.43,-20.39,-21.39,0,*4D
1505383387.73,32122,17.0,73576.0,14.43,-22.07,-23.03,0,*4A
1505383388.93,32123,17.0,73580.0,14.43,-21.13,-22.07,0,*48
1505383390.18,32124,17.0,73578.5,14.41,-20.93,-21.83,0,*4B
1505383391.41,32125,17.0,73566.5,14.39,-21.23,-22.11,0,*47
1505383392.63,32126,17.0,73564.0,14.39,-19.99,-20.89,0,*4D
1505383393.86,32127,17.0,73560.8,14.41,-19.99,-20.93,0,*48
1505383395.12,32128,17.0,73564.8,14.39,-19.57,-20.35,0,*46
1505383396.35,32129,17.0,73570.5,14.43,-19.75,-20.53,0,*4A
1505383397.6,32130,17.0,73574.0,14.41,-18.73,-19.41,0,*4E
1505383398.83,32131,17.0,73574.8,14.43,-19.03,-19.81,0,*47
1505383400.03,32132,17.0,73570.5,14.43,-18.79,-19.71,0,*47
1505383401.28,32133,17.0,73564.0,14.45,-17.79,-18.49,0,*45
1505383402.5,32134,17.0,73570.3,14.47,-17.63,-18.49,0,*4B
1505383403.75,32135,17.0,73572.5,14.49,-17.11,-17.87,0,*4C
1505383405.04,32136,17.0,73576.8,14.55,-17.55,-18.31,0,*40
1505383406.28,32137,17.0,73576.3,14.55,-18.17,-18.89,0,*4B
1505383407.56,32138,17.0,73582.3,14.55,-17.21,-17.93,0,*4A
1505383408.79,32139,17.0,73570.0,14.61,-17.97,-18.79,0,*4A
1505383410.03,32140,17.0,73564.0,14.59,-19.71,-20.59,0,*40
1505383411.28,32141,17.0,73560.5,14.61,-18.35,-19.23,0,*4C
1505383412.49,32142,17.0,73560.0,14.61,-17.87,-18.49,0,*44
1505383413.74,32143,17.0,73560.0,14.63,-17.69,-18.31,0,*48
1505383415.0,32144,17.0,73558.5,14.67,-18.69,-19.57,0,*45
1505383416.25,32145,17.0,73556.8,14.67,-18.49,-19.31,0,*46
1505383417.48,32146,17.0,73558.0,14.67,-20.05,-20.89,0,*4F
1505383418.69,32147,17.0,73554.3,14.65,-21.47,-22.53,0,*4E
1505383419.92,32148,17.0,73560.3,14.63,-21.63,-22.63,0,*42
1505383421.17,32149,17.0,73560.8,14.61,-21.23,-22.21,0,*43
1505383422.39,32150,17.0,73562.8,14.57,-22.67,-23.69,0,*40
1505383423.62,32151,17.0,73570.3,14.57,-21.33,-22.27,0,*48
1505383424.88,32152,17.0,73576.5,14.55,-20.39,-21.33,0,*44
1505383426.14,32153,17.0,73572.8,14.53,-20.83,-21.67,0,*43
1505383427.39,32154,17.0,73576.3,14.55,-21.53,-22.41,0,*49
1505383428.59,32155,17.0,73578.5,14.53,-20.29,-21.09,0,*4D
1505383429.8,32156,17.0,73574.3,14.53,-20.69,-21.47,0,*40
1505383431.03,32157,17.0,73572.5,14.53,-19.81,-20.59,0,*43
1505383432.26,32158,17.0,73576.0,14.53,-20.25,-20.99,0,*44
1505383433.49,32159,17.0,73574.8,14.53,-20.25,-21.03,0,*47
1505383434.73,32160,17.0,73570.8,14.53,-20.43,-21.33,0,*4E
1505383435.95,32161,17.0,73576.5,14.53,-19.17,-19.95,0,*43
1505383437.18,32162,17.0,73574.5,14.55,-19.13,-19.91,0,*46
1505383438.44,32163,17.0,73564.3,14.55,-20.59,-21.53,0,*46
1505383439.68,32164,17.0,73564.5,14.53,-21.23,-22.07,0,*49
1505383440.94,32165,17.0,73564.3,14.53,-22.17,-23.23,0,*4B
1505383442.15,32166,17.0,73564.5,14.47,-23.09,-24.05,0,*40
1505383443.34,32167,17.0,73566.8,14.47,-21.09,-22.03,0,*43
1505383444.54,32168,17.0,73570.3,14.47,-21.17,-22.07,0,*47
1505383445.74,32169,17.0,73568.8,14.47,-20.05,-20.69,0,*4E
1505383446.99,32170,17.0,73568.8,14.49,-19.07,-19.85,0,*48
1505383448.24,32171,17.0,73568.8,14.49,-18.59,-19.37,0,*4A
1505383449.45,32172,17.0,73570.3,14.53,-18.41,-19.17,0,*49
1505383450.66,32173,17.0,73574.3,14.53,-18.25,-19.17,0,*4A
1505383451.91,32174,17.0,73574.3,14.55,-17.63,-18.41,0,*44
1505383453.13,32175,17.0,73578.0,14.55,-18.25,-18.99,0,*4D
1505383454.38,32176,17.0,73578.8,14.59,-17.83,-18.59,0,*4D
1505383455.61,32177,17.0,73576.8,14.61,-17.41,-18.21,0,*46
1505383456.84,32178,17.0,73574.0,14.63,-18.45,-19.17,0,*44
1505383458.1,32179,17.0,73572.3,14.63,-19.31,-19.99,0,*41
1505383459.35,32180,17.0,73574.8,14.63,-18.31,-19.07,0,*41
1505383460.55,32181,17.0,73568.5,14.65,-19.17,-19.91,0,*4C
1505383461.78,32182,17.0,73570.0,14.65,-19.85,-20.69,0,*49
1505383462.98,32183,17.0,73570.5,14.65,-19.91,-20.69,0,*4D
1505383464.23,32184,17.0,73568.3,14.65,-19.85,-20.79,0,*4E
1505383465.45,32185,17.0,73572.0,14.65,-20.35,-21.17,0,*47
1505383466.68,32186,17.0,73576.3,14.63,-19.95,-20.73,0,*41
1505383467.89,32187,17.0,73574.8,14.65,-19.91,-20.69,0,*49
1505383469.11,32188,17.0,73572.8,14.63,-20.25,-21.17,0,*4D
1505383470.35,32189,17.0,73578.0,14.63,-19.03,-19.95,0,*43
1505383471.6,32190,17.0,73578.5,14.63,-21.39,-22.17,0,*4B
1505383472.88,32191,17.0,73562.0,14.67,-19.31,-20.19,0,*41
1505383474.16,32192,17.0,73552.0,14.63,-21.03,-21.83,0,*4E
1505383475.42,32193,17.0,73576.3,14.63,-18.73,-19.65,0,*41
1505383476.65,32194,17.0,73568.5,14.61,-20.89,-21.87,0,*4D
1505383477.91,32195,17.0,73552.5,14.61,-21.57,-22.47,0,*41
1505383479.16,32196,17.0,73552.5,14.59,-19.13,-19.95,0,*45
1505383480.42,32197,17.0,73566.3,14.61,-19.27,-20.15,0,*4A
1505383481.68,32198,17.0,73574.5,14.61,-21.67,-22.77,0,*4C
1505383482.94,32199,17.0,73584.0,14.57,-20.99,-21.87,0,*44
1505383484.18,32200,17.0,73574.0,14.55,-19.17,-20.05,0,*42
1505383485.38,32201,17.0,73566.0,14.57,-22.53,-23.39,0,*45
1505383486.64,32202,17.0,73558.3,14.55,-23.59,-24.87,0,*4D
1505383487.86,32203,17.0,73560.0,14.47,-25.23,-26.33,0,*49
1505383489.12,32204,17.0,73566.0,14.43,-24.21,-25.29,0,*41
1505383490.35,32205,17.0,73566.0,14.41,-22.03,-22.97,0,*46
1505383491.55,32206,17.0,73568.8,14.39,-21.43,-22.37,0,*47
1505383492.78,32207,17.0,73566.3,14.41,-19.17,-19.99,0,*4F
1505383493.99,32208,17.0,73566.5,14.43,-19.17,-19.95,0,*4E
1505383495.22,32209,17.0,73566.3,14.45,-20.05,-20.89,0,*47
1505383496.48,32210,17.0,73568.3,14.45,-18.49,-19.27,0,*42
1505383497.75,32211,17.0,73566.3,14.45,-17.63,-18.55,0,*40
1505383498.96,32212,17.0,73574.0,14.47,-20.35,-21.13,0,*4E
1505383500.22,32213,17.0,73564.8,14.49,-18.65,-19.41,0,*43
1505383501.47,32214,17.0,73566.3,14.49,-19.41,-20.29,0,*47
1505383502.71,32215,17.0,73568.3,14.49,-20.35,-21.13,0,*47
1505383503.95,32216,17.0,73574.0,14.49,-19.37,-20.09,0,*46
1505383505.2,32217,17.0,73572.0,14.49,-18.65,-19.41,0,*47
1505383506.4,32218,17.0,73578.0,14.53,-17.69,-18.41,0,*41
1505383507.66,32219,17.0,73580.8,14.55,-17.07,-17.83,0,*4F
1505383508.9,32220,17.0,73582.5,14.57,-17.45,-18.21,0,*46
1505383510.15,32221,17.0,73568.0,14.61,-19.41,-20.15,0,*44
1505383511.4,32222,17.0,73562.5,14.61,-20.99,-21.97,0,*43
1505383512.65,32223,17.0,73560.3,14.59,-22.03,-23.03,0,*47
1505383513.88,32224,17.0,73562.0,14.57,-22.87,-23.85,0,*4C
1505383515.17,32225,17.0,73560.8,14.55,-21.33,-22.17,0,*49
1505383516.4,32226,17.0,73558.8,14.53,-20.25,-20.99,0,*4E
1505383517.63,32227,17.0,73556.3,14.55,-18.73,-19.51,0,*4F
1505383518.85,32228,17.0,73548.5,14.53,-20.09,-21.03,0,*4C
1505383520.05,32229,17.0,73546.5,14.53,-20.29,-21.09,0,*45
1505383521.3,32230,17.0,73542.0,14.55,-20.29,-21.03,0,*41
1505383522.55,32231,17.0,73548.0,14.55,-20.69,-21.53,0,*41
1505383523.76,32232,17.0,73550.5,14.53,-19.91,-20.73,0,*4A
1505383524.97,32233,17.0,73544.3,14.53,-19.17,-20.05,0,*44
1505383526.22,32234,17.0,73546.0,14.57,-20.35,-21.33,0,*49
1505383527.46,32235,16.94,73540.5,14.53,-21.23,-22.07,0,*4E
1505383528.69,32236,17.0,73542.5,14.55,-19.91,-20.59,0,*40
1505383529.95,32237,17.0,73544.5,14.55,-19.23,-20.09,0,*4D
1505383531.17,32238,17.0,73544.8,14.53,-20.29,-21.03,0,*4F
1505383532.41,32239,17.0,73540.0,14.55,-19.51,-20.29,0,*44
1505383533.65,32240,17.0,73532.0,14.55,-19.51,-20.39,0,*4B
1505383534.91,32241,17.0,73522.5,14.55,-19.75,-20.53,0,*40
1505383536.16,32242,17.0,73530.0,14.57,-18.55,-19.31,0,*4C
1505383537.45,32243,17.0,73538.0,14.59,-19.57,-20.35,0,*4E
1505383538.65,32244,17.0,73544.8,14.57,-20.39,-21.43,0,*45
1505383539.88,32245,17.0,73544.3,14.57,-21.27,-22.11,0,*4E
1505383541.14,32246,17.0,73532.0,14.57,-22.21,-23.23,0,*48
1505383542.35,32247,17.0,73532.5,14.53,-23.09,-24.05,0,*45
1505383543.61,32248,17.0,73546.0,14.49,-20.59,-21.27,0,*42
1505383544.9,32249,17.0,73562.0,14.49,-19.23,-20.19,0,*48
1505383546.12,32250,17.0,73562.0,14.53,-20.05,-20.83,0,*46
1505383547.38,32251,17.0,73556.0,14.49,-19.65,-20.59,0,*47
1505383548.62,32252,17.0,73556.5,14.49,-19.99,-20.63,0,*4E
1505383549.83,32253,17.0,73556.5,14.53,-18.41,-19.13,0,*4D
1505383551.09,32254,17.0,73562.3,14.53,-17.07,-17.79,0,*45
1505383552.35,32255,17.0,73566.8,14.55,-18.73,-19.65,0,*4D
1505383553.63,32256,17.0,73562.8,14.59,-19.57,-20.35,0,*4A
1505383554.86,32257,17.0,73560.0,14.57,-18.21,-18.93,0,*42
1505383556.12,32258,17.0,73550.3,14.59,-17.45,-18.17,0,*42
1505383557.35,32259,17.0,73556.5,14.63,-19.95,-20.93,0,*4E
1505383558.58,32260,17.0,73556.8,14.61,-19.85,-20.73,0,*49
1505383559.79,32261,17.0,73548.0,14.61,-20.63,-21.39,0,*45
1505383561.01,32262,17.0,73512.8,14.61,-18.89,-19.71,0,*4E
1505383562.25,32263,17.0,73540.5,14.61,-19.65,-20.63,0,*45
1505383563.46,32264,17.0,73536.0,14.61,-22.37,-23.43,0,*4C
1505383564.7,32265,17.0,73542.5,14.57,-24.11,-25.09,0,*42
1505383565.99,32266,17.0,73534.8,14.55,-22.17,-23.23,0,*4D
1505383567.27,32267,17.0,73550.3,14.49,-22.47,-23.49,0,*48
1505383568.47,32268,17.0,73532.5,14.47,-22.53,-23.39,0,*4B
1505383569.72,32269,17.0,73544.5,14.45,-21.43,-22.73,0,*45
1505383570.97,32270,17.0,73542.3,14.45,-21.57,-22.57,0,*4E
1505383572.22,32271,17.0,73556.5,14.43,-21.67,-22.77,0,*48
1505383573.48,32272,17.0,73556.5,14.43,-20.19,-20.99,0,*41
1505383574.7,32273,17.0,73554.3,14.45,-21.09,-21.93,0,*4D
1505383575.94,32274,17.0,73552.5,14.43,-21.53,-22.63,0,*4F
1505383577.17,32275,17.0,73560.5,14.39,-22.77,-23.75,0,*40
1505383578.44,32276,17.0,73566.5,14.39,-21.53,-22.47,0,*46
1505383579.67,32277,17.0,73568.0,14.39,-20.89,-21.87,0,*4E
1505383580.88,32278,17.0,73570.5,14.35,-21.17,-22.07,0,*40
1505383582.14,32279,17.0,73568.3,14.37,-18.69,-19.61,0,*48
1505383583.33,32280,17.0,73566.5,14.39,-18.25,-19.07,0,*48
1505383584.59,32281,17.0,73566.3,14.41,-19.65,-20.43,0,*49
1505383585.86,32282,17.0,73570.0,14.41,-19.41,-20.15,0,*4F
1505383587.08,32283,17.0,73574.3,14.43,-19.81,-20.69,0,*4B
1505383588.32,32284,17.0,73572.8,14.43,-19.65,-20.43,0,*4E
1505383589.53,32285,17.0,73576.8,14.43,-20.05,-20.89,0,*45
1505383590.78,32286,17.0,73580.8,14.43,-18.89,-19.61,0,*45
1505383591.98,32287,17.0,73578.5,14.43,-18.17,-18.99,0,*45
1505383593.2,32288,17.0,73576.0,14.45,-18.17,-18.99,0,*4C
1505383594.48,32289,17.0,73578.0,14.49,-17.59,-18.31,0,*46
1505383595.73,32290,17.0,73582.3,14.53,-16.31,-17.03,0,*44
1505383596.96,32291,17.0,73578.5,14.55,-15.99,-16.59,0,*4C
1505383598.21,32292,17.0,73576.8,14.59,-16.03,-16.69,0,*40
1505383599.47,32293,17.0,73572.8,14.61,-16.51,-17.45,0,*42
1505383600.67,32294,17.0,73576.3,14.65,-18.07,-18.83,0,*49
1505383601.88,32295,17.0,73572.8,14.67,-18.25,-18.99,0,*41
1505383603.13,32296,17.0,73578.3,14.67,-18.65,-19.31,0,*45
1505383604.39,32297,17.0,73582.3,14.67,-17.21,-18.07,0,*4F
1505383605.62,32298,17.0,73590.3,14.71,-17.83,-18.49,0,*45
1505383606.84,32299,17.0,73588.8,14.71,-17.31,-18.17,0,*46
1505383608.07,32300,17.0,73586.3,14.75,-17.87,-18.69,0,*47
1505383609.26,32301,17.0,73590.3,14.77,-18.21,-19.03,0,*4A
1505383610.48,32302,17.0,73580.0,14.77,-19.47,-20.39,0,*4B
1505383611.69,32303,17.0,73584.8,14.77,-18.41,-19.13,0,*4F
1505383612.96,32304,17.0,73592.0,14.79,-19.85,-20.83,0,*4C
1505383614.2,32305,17.0,73584.3,14.75,-24.05,-25.65,0,*4A
1505383615.44,32306,17.0,73574.5,14.69,-24.71,-25.87,0,*4B
1505383616.69,32307,17.0,73570.5,14.67,-23.49,-24.47,0,*45
1505383617.91,32308,17.0,73570.0,14.61,-24.93,-26.13,0,*4F
1505383619.18,32309,17.0,73568.3,14.59,-23.79,-24.71,0,*40
1505383620.46,32310,17.0,73562.5,14.55,-21.23,-21.83,0,*41
1505383621.69,32311,17.0,73558.3,14.55,-20.43,-21.63,0,*49
1505383622.94,32312,17.0,73564.8,14.53,-20.99,-21.97,0,*40
1505383624.18,32313,17.0,73568.5,14.55,-20.59,-21.63,0,*40
1505383625.41,32314,17.0,73566.0,14.53,-21.23,-22.07,0,*4C
1505383626.67,32315,17.0,73564.0,14.53,-21.03,-21.83,0,*40
1505383627.9,32316,17.0,73568.0,14.53,-20.25,-20.99,0,*4C
1505383629.1,32317,17.0,73568.3,14.53,-20.29,-21.09,0,*49
1505383630.35,32318,17.0,73570.3,14.55,-20.05,-20.83,0,*4D
1505383631.62,32319,17.0,73572.5,14.55,-20.15,-21.03,0,*44
1505383632.83,32320,17.0,73572.3,14.53,-22.41,-23.43,0,*4D
1505383634.06,32321,17.0,73566.5,14.49,-23.43,-24.47,0,*47
1505383635.32,32322,16.94,73564.0,14.45,-24.61,-25.81,0,*44
1505383636.57,32323,17.0,73570.0,14.43,-21.83,-22.77,0,*44
1505383637.78,32324,17.0,73564.5,14.39,-23.59,-24.61,0,*4A
1505383638.99,32325,17.0,73568.5,14.39,-22.11,-23.09,0,*4F
1505383640.24,32326,17.0,73570.0,14.37,-21.87,-22.41,0,*43
1505383641.47,32327,17.0,73566.3,14.35,-22.47,-23.39,0,*41
1505383642.71,32328,17.0,73574.3,14.35,-20.89,-21.67,0,*47
1505383643.93,32329,17.0,73570.0,14.37,-18.17,-18.83,0,*48
1505383645.18,32330,17.0,73578.0,14.41,-17.55,-18.17,0,*45
1505383646.4,32331,17.0,73584.8,14.41,-16.93,-17.69,0,*49
1505383647.61,32332,17.0,73574.0,14.47,-19.47,-20.25,0,*46
1505383648.84,32333,17.0,73556.5,14.47,-19.37,-20.15,0,*43
1505383650.09,32334,17.0,73548.8,14.49,-19.07,-19.85,0,*4A
1505383651.34,32335,17.0,73566.0,14.49,-19.03,-19.85,0,*4F
1505383652.57,32336,17.0,73572.8,14.47,-19.75,-20.53,0,*42
1505383653.8,32337,17.0,73570.0,14.53,-19.23,-19.75,0,*4B
1505383655.07,32338,17.0,73560.3,14.53,-19.65,-20.53,0,*48
1505383656.3,32339,17.0,73554.0,14.53,-20.43,-21.33,0,*40
1505383657.52,32340,17.0,73540.8,14.53,-20.43,-21.39,0,*44
1505383658.73,32341,17.0,73550.0,14.53,-21.63,-22.63,0,*4A
1505383659.95,32342,17.0,73564.3,14.47,-22.67,-23.49,0,*42
1505383661.2,32343,17.0,73564.3,14.47,-20.79,-21.87,0,*4E
1505383662.43,32344,17.0,73546.5,14.45,-21.13,-22.07,0,*4D
1505383663.71,32345,17.0,73536.0,14.45,-23.19,-24.25,0,*42
1505383664.94,32346,17.0,73534.0,14.41,-22.11,-23.09,0,*45
1505383666.14,32347,17.0,73558.5,14.39,-22.03,-22.93,0,*4A
1505383667.43,32348,17.0,73572.8,14.41,-22.17,-23.23,0,*45
1505383668.62,32349,17.0,73540.8,14.39,-22.63,-23.59,0,*45
1505383669.86,32350,17.0,73552.0,14.35,-21.53,-22.57,0,*4E
1505383671.09,32351,17.0,73552.0,14.35,-21.97,-22.93,0,*4F
1505383672.34,32352,17.0,73548.3,14.33,-24.15,-25.35,0,*4E
1505383673.58,32353,17.0,73536.8,14.31,-24.25,-25.23,0,*49
1505383674.81,32354,17.0,73548.3,14.23,-23.53,-24.51,0,*4F
1505383676.07,32355,17.0,73558.3,14.23,-22.21,-23.19,0,*41
1505383677.36,32356,17.0,73556.0,14.21,-23.29,-24.25,0,*41
1505383678.61,32357,17.0,73560.0,14.19,-22.57,-23.65,0,*40
1505383679.84,32358,17.0,73554.3,14.17,-24.31,-25.29,0,*49
1505383681.07,32359,17.0,73566.3,14.17,-22.37,-23.29,0,*4E
1505383682.32,32360,17.0,73568.3,14.15,-20.89,-21.67,0,*49
1505383683.56,32361,17.0,73572.5,14.15,-19.13,-19.91,0,*43
1505383684.8,32362,17.0,73578.0,14.19,-19.81,-20.63,0,*40
1505383686.07,32363,17.0,73572.3,14.19,-19.81,-20.53,0,*42
1505383687.3,32364,17.0,73568.3,14.19,-19.95,-20.93,0,*4C
1505383688.56,32365,17.0,73574.8,14.21,-18.93,-19.71,0,*47
1505383689.79,32366,17.0,73574.3,14.25,-18.99,-19.71,0,*4A
1505383691.03,32367,17.0,73572.0,14.23,-19.13,-19.81,0,*41
1505383692.25,32368,17.0,73574.3,14.23,-20.09,-20.83,0,*47
1505383693.5,32369,17.0,73570.0,14.31,-18.59,-19.23,0,*4B
1505383694.71,32370,17.0,73564.3,14.31,-18.73,-19.51,0,*4E
1505383695.93,32371,17.0,73562.3,14.31,-17.87,-18.59,0,*42
1505383697.16,32372,17.0,73566.5,14.37,-18.07,-18.79,0,*42
1505383698.42,32373,17.0,73564.0,14.37,-20.15,-20.93,0,*44
1505383699.71,32374,17.0,73568.8,14.37,-20.53,-21.27,0,*4F
1505383700.97,32375,17.0,73572.0,14.37,-18.93,-19.71,0,*41
1505383702.25,32376,17.0,73574.8,14.37,-16.69,-17.25,0,*46
1505383703.48,32377,17.0,73574.5,14.41,-16.37,-16.97,0,*45